{"data":{"norad_id":69724,"intl_designator":"2026-147W","name":"STARLINK-38008","alt_names":[],"object_type":"PAYLOAD","status":"ACTIVE","operator":null,"country":"US","launch_date":"2026-06-28","launch_site_code":"AFWTR","launch_vehicle":null,"mission":null,"orbit_class":"UNKNOWN","rcs_meters":null,"size_class":null,"mass_kg":null,"dimensions":null,"purposes":["comms"],"wikipedia_slug":null,"has_3d_model":false,"image_url":null,"decayed_at":null,"tle_current":{"epoch":"2026-09-20T02:02:31.180704Z","epoch_age_seconds":57483,"freshness":"FRESH","line1":"1 69724U 26147W   26263.08508311  .00017887  00000+0  55463-3 0  9999","line2":"2 69724  97.2851 299.5061 0001137 102.7751 257.3619 15.33470232 14175","mean_motion":15.33470232,"eccentricity":0.0001137,"inclination_deg":97.2851,"raan_deg":299.5061,"arg_perigee_deg":102.7751,"mean_anomaly_deg":257.3619,"bstar":0.00055463,"rev_number":1417,"period_min":93.904659506948,"perigee_km":464.68998492755,"apogee_km":466.24622072793,"semimajor_km":6843.6051028277,"source":"CELESTRAK","updated_at":"2026-09-20T09:00:44.284937Z"}}}